Flag for Luxembourg Weather past 2 weeks in Differdange, Luxembourg

Now
66 °F

Sunny.


Feels Like: 66 °F
Forecast: 59 / 72 °F
Wind: 3 mph from North

Location: Luxembourg Airport

Current Time: Aug 2, 2014 at 8:59:31 AM

Latest Report: Aug 2, 2014 at 8:20 AM


Visibility: 10 mi

Pressure: 29.77 "Hg

Humidity: 73%

Dew point: 57 °F

Location of DifferdangeLocation

Historic Weather in Differdange — Graph

°F

Differdange temperature yesterday

Maximum temperature yesterday: 81 °F (at 5:20 PM)
Minimum temperature yesterday: 61 °F (at 3:50 AM)
Average temperature yesterday: 71 °F

Past Weeks' High & Low Weather Summary

 TemperatureHumidityPressure
High90 °F (Jul 18, 3:50 PM)100% (Jul 22, 5:50 AM)30.09 "Hg (Jul 22, 5:50 AM)
Low55 °F (Jul 31, 5:50 AM)29% (Jul 19, 2:20 PM)29.77 "Hg (Aug 2, 4:20 AM)
Average70 °F69%29.94 "Hg
* Reported Jul 18 7:20 AM — Aug 2 7:50 AM, Differdange, Weather by CustomWeather, © 2014

Note: Actual official high and low records may vary slightly from our data, if they occured in-between our weather recording intervals... More about our weather records

Advertising

Differdange weather history for previous 24 hours

 ConditionsComfort  
Time TempWeatherWind HumidityBarometerVisibility
7:50 AM
Aug 2
66 °FSunny.3 mph73%29.77 "Hg10 mi
7:20 AM64 °FSunny.5 mph73%29.77 "Hg10 mi
6:50 AM64 °FClear.5 mph73%29.77 "Hg10 mi
6:20 AM64 °FClear.3 mph73%29.77 "Hg10 mi
5:50 AM64 °FClear.5 mph73%29.77 "Hg10 mi
5:20 AM64 °FClear.No wind73%29.77 "Hg10 mi
4:50 AM66 °FMild.5 mph68%29.77 "HgN/A
4:20 AM66 °FMild.5 mph68%29.77 "HgN/A
3:50 AM66 °FMild.3 mph68%29.80 "HgN/A
3:20 AM66 °FMild.3 mph68%29.80 "HgN/A
2:50 AM66 °FMild.5 mph68%29.80 "HgN/A
2:20 AM66 °FMild.2 mph73%29.80 "HgN/A
1:50 AM66 °FClear.2 mph73%29.80 "Hg10 mi
1:20 AM66 °FClear.5 mph73%29.80 "Hg10 mi
12:50 AM68 °FClear.5 mph69%29.80 "Hg10 mi
12:20 AM70 °FClear.5 mph69%29.83 "Hg10 mi
11:50 PM
Aug 1
70 °FClear.2 mph69%29.83 "Hg10 mi
11:20 PM72 °FClear.5 mph65%29.83 "Hg10 mi
10:50 PM72 °FClear.3 mph65%29.83 "Hg10 mi
10:20 PM72 °FClear.3 mph65%29.83 "Hg10 mi
9:50 PM73 °FSunny.2 mph57%29.80 "Hg10 mi
9:20 PM75 °FSunny.2 mph54%29.80 "Hg10 mi
8:50 PM75 °FSunny.2 mph54%29.80 "Hg10 mi
8:20 PM77 °FPassing clouds.2 mph47%29.80 "HgN/A
7:50 PM77 °FPassing clouds.3 mph47%29.80 "HgN/A
7:20 PM79 °FPassing clouds.3 mph45%29.83 "HgN/A
6:50 PM79 °FPassing clouds.5 mph45%29.83 "HgN/A
6:20 PM79 °FPassing clouds.5 mph45%29.83 "HgN/A
5:50 PM79 °FPassing clouds.8 mph45%29.83 "HgN/A
5:20 PM81 °FPassing clouds.6 mph42%29.83 "HgN/A
4:50 PM79 °FPassing clouds.3 mph45%29.83 "HgN/A
4:20 PM79 °FPassing clouds.5 mph45%29.83 "HgN/A
3:50 PM79 °FPassing clouds.5 mph45%29.83 "HgN/A
3:20 PM77 °FPassing clouds.6 mph47%29.86 "HgN/A
2:50 PM77 °FPassing clouds.5 mph47%29.86 "HgN/A
2:20 PM79 °FScattered clouds.6 mph45%29.86 "HgN/A
1:50 PM77 °FScattered clouds.5 mph47%29.86 "HgN/A
1:20 PM77 °FPassing clouds.3 mph51%29.86 "HgN/A
12:50 PM75 °FPassing clouds.6 mph50%29.89 "HgN/A
12:20 PM75 °FPassing clouds.3 mph47%29.89 "HgN/A
11:50 AM75 °FPassing clouds.3 mph47%29.89 "HgN/A
11:20 AM75 °FPassing clouds.5 mph54%29.89 "HgN/A
10:50 AM73 °FPassing clouds.1 mph53%29.89 "HgN/A
10:20 AM73 °FSunny.No wind57%29.89 "Hg10 mi
9:50 AM72 °FSunny.No wind61%29.89 "Hg10 mi
9:20 AM68 °FSunny.1 mph69%29.92 "Hg10 mi
8:50 AM66 °FSunny.3 mph68%29.89 "Hg10 mi
8:20 AM66 °FPassing clouds.5 mph73%29.89 "HgN/A
Weather by CustomWeather, © 2014

See weather overviewHow to use our weather pages